Home > Weather > Rapid City > Past weeks

Flag for USA Past Weather in Rapid City, South Dakota, USA — Yesterday and Last 2 Weeks

Now
80 °F

Sunny.


Feels Like: 80 °F
Forecast: 65 / 93 °F
Wind: 9 mph from Southeast

Location: Ellsworth Air Force Base

Current Time: Jul 24, 2016 at 8:34:16 PM

Latest Report: Jul 24, 2016 at 7:58 PM


Visibility: 10 mi

Pressure: 30.01 "Hg (26.85 "Hg at 977m altitude)

Humidity: 36%

Dew Point: 50 °F

Location of Rapid CityLocation

Past Weather in Rapid City — Graph

°F

Rapid City Temperature Yesterday

Maximum temperature yesterday: 90 °F (at 3:59 PM)
Minimum temperature yesterday: 68 °F (at 5:58 AM)
Average temperature yesterday: 79 °F

High & Low Weather Summary for the Past Weeks

 TemperatureHumidityPressure
High101 °F (Jul 20, 4:58 PM)92% (Jul 15, 6:58 AM)30.17 "Hg (Jul 15, 6:58 AM)
Low53 °F (Jul 12, 1:58 AM)9% (Jul 11, 1:58 PM)29.43 "Hg (Jul 10, 6:58 PM)
Average76 °F49%29.89 "Hg
* Reported Jul 9 6:58 PM — Jul 24 6:58 PM, Rapid City, Weather by CustomWeather, © 2016

Note: Actual official high and low records may vary slightly from our data, if they occured in-between our weather recording intervals... More about our weather records

Advertising

Rapid City Weather History for the Previous 24 Hours

Scroll right to see more
 ConditionsComfort  
Time TempWeatherWind HumidityBarometerVisibility
6:58 PM
Sun, Jul 24
85 °FSunny.13 mph29%30.01 "Hg10 mi
5:58 PM86 °FSunny.12 mph26%30.00 "Hg10 mi
4:58 PM85 °FScattered clouds.9 mph28%30.08 "Hg10 mi
3:58 PM87 °FSunny.14 mph25%30.10 "Hg10 mi
2:58 PM87 °FSunny.2 mph27%30.02 "Hg10 mi
1:58 PM84 °FPassing clouds.2 mph28%30.04 "Hg10 mi
12:58 PM82 °FPassing clouds.7 mph30%30.05 "Hg10 mi
11:58 AM79 °FMostly cloudy.6 mph36%N/A10 mi
10:58 AM77 °FPartly sunny.10 mph42%N/A10 mi
9:58 AM72 °FOvercast.7 mph50%30.16 "Hg10 mi
8:58 AM68 °FPartly sunny.6 mph60%30.09 "Hg10 mi
7:58 AM65 °FOvercast.3 mph78%30.07 "Hg10 mi
6:58 AM62 °FPartly sunny.5 mph82%30.05 "Hg10 mi
4:58 AM66 °FOvercast.2 mph62%N/A10 mi
3:58 AM67 °FThunderstorms. Low clouds.6 mph51%30.01 "Hg9 mi
2:58 AM70 °FPassing clouds.8 mph38%30.00 "Hg10 mi
1:58 AM70 °FClear.10 mph37%30.02 "Hg10 mi
12:58 AM72 °FClear.8 mph33%30.02 "Hg10 mi
11:58 PM
Sat, Jul 23
69 °FClear.9 mph35%29.99 "Hg10 mi
10:58 PM73 °FClear.12 mph29%29.95 "Hg10 mi
9:58 PM76 °FClear.5 mph26%29.95 "Hg10 mi
8:58 PM78 °FClear.6 mph26%29.92 "Hg10 mi
Weather by CustomWeather, © 2016

See weather overviewHow to use our weather pages